Showing default

NAVSPASUR ROD 1, 1515

Orbit data source: Space-Track

NAVSPASUR ROD 1, 1515 is a payload satellite owned by NRL (US) in LEO that was launched on Fri, 13 Aug 1965 UTC via a THOR ABLESTAR launch vehicle from the Air Force Western Test Range (AFWTR). Payloads include a variety of satellites, spacecraft, and rockets equipped with specific instruments for various scientific and technological missions. These include communications satellites like Starlink; space stations such as the ISS; scientific satellites like the Hubble; Earth observation satellites from companies like Planet Labs, Umbra, and HawkEye 360; GPS; miniature CubeSats for education and research; and military/defense satellites.

Loading next visibility...
NAVSPASUR ROD 1 details
Identifier
1515, 1965-065G
Orbit
LEO
Last TLE update17 hours ago
Origin
Flag of USNRL (US)
ManufacturerNRL
MissionDefense Calibration
Bus & MotorLONG ROD, Unknown motor
Mass3 kg wet, 3 kg dry
Launch date (UTC)
1965-08-13 (59 years ago)
Launch vehicle
THOR ABLESTAR
Launch site
Air Force Western Test Range (AFWTR)
Object type
Payload
Rocket body
Debris
Shape & HBRSphere, 0.4 m
Radar Cross Section0.126 m², Small (<0.1 m²)

Expand to show TLE details & history

TLE from 17 hours ago
0 NAVSPASUR ROD 1
1 01515U 65065G   24355.88776655  .00000680  00000-0  10380-2 0  9993
2 01515  89.9892 213.8346 0057601  86.9201 285.7872 13.50334277906987
Epoch: 2024-12-20T21:18Z
Definitive object data (Epoch: 2024-12-20T21:18:23.029Z)
Latitude12.02753°
Longitude164.29411°
Altitude1,061.781 km
Speed7.328 km/s
True Right ascension14h 15m 20s
True Declination11° 57' 38"
Sunlit
Object was in daylight at TLE epoch
Visualization TLE readout
Latitude-65.10126°
Longitude164.26788°
Altitude1,132.918 km
Speed7.267 km/s
Apparent Right ascension00h 50m 44s
Apparent Declination-80° 33' 15"
Sunlit
Object is in daylight
Visualization observer readout
Local Sidereal Time13:44:41
Azimuth176.652° S
Elevation-49.058°
Doppler factor1
Orbital elements
Apogee altitude1,110.969 km
Perigee altitude1,025.187 km
Semi-major axis7,446.215 km
Eccentricity0.0057601
Inclination89.9892°
RAAN213.8346°
Arg. of periapsis86.9201°
True anomaly285.15081°
Mean anomaly285.7872°
Eccentric anomaly285.46913°
Mean motion3.37785 °/min
BSTAR0.001038
Orbital period106.58 mins
Loading maneuver chart data...
Loading historical data...
Loading historical data...
Loading historical data...
Loading historical data...
Loading historical data...
Loading historical data...
Loading historical data...

NAVSPASUR ROD 1 Visibility forecast

Observer location: undefined°, undefined

Span
Click to sort rows by Start time (UTC) header in descending order
Start Az.
Max El. time (UTC)
Max El. Az.
Max El.
End time (UTC)
End Az.
12 mins2024-12-21 15:07:30.614Z176.275° S2024-12-21 15:13:30.614Z191.252° SSW44.966°2024-12-21 15:19:30.614Z357.676° N
10 mins2024-12-22 02:18:30.614Z24.02° NE2024-12-22 02:23:30.614Z92.008° ESE31.944°2024-12-22 02:28:30.614Z149.958° SSE
9 mins2024-12-22 04:05:30.614Z333.354° NNW2024-12-22 04:09:30.614Z282.171° WNW28.012°2024-12-22 04:14:30.614Z225.51° WSW
10 mins2024-12-22 14:16:30.614Z138.669° SSE2024-12-22 14:21:30.614Z70.334° E31.623°2024-12-22 14:26:30.614Z15.467° NNE
|